Date,TemperatureHighF,TemperatureAvgF,TemperatureLowF,DewpointHighF,DewpointAvgF,DewpointLowF,HumidityHigh,HumidityAvg,HumidityLow,PressureMaxIn,PressureMinIn,WindSpeedMaxMPH,WindSpeedAvgMPH,GustSpeedMaxMPH,PrecipitationSumIn
2013-11-1,71.6,65.3,58.3,60.7,56.2,51.6,95,73,56,29.70,29.30,18,5,31,0.02
2013-11-2,66.3,54.8,44.3,52.2,44.5,39.2,90,71,38,29.63,29.50,6,1,14,0.00
2013-11-3,50.4,41.3,30.7,46.1,30.9,17.8,94,68,40,30.34,29.63,6,1,12,0.09
2013-11-4,43.6,32.5,24.5,22.1,17.8,13.3,81,57,30,30.63,30.34,3,0,12,0.00
2013-11-5,49.4,36.2,23.6,34.2,26.8,18.3,83,70,46,30.64,30.43,2,0,8,0.00
2013-11-6,61.3,50.0,38.3,47.6,39.6,32.5,80,68,46,30.43,29.93,5,1,13,0.00
2013-11-7,64.0,53.7,39.6,56.5,48.0,31.8,93,81,68,29.93,29.58,8,2,22,0.10
2013-11-8,46.8,38.8,33.2,33.9,26.7,22.8,81,62,46,29.97,29.71,10,4,23,0.00
2013-11-9,43.2,38.6,33.1,27.0,22.3,19.5,62,52,40,30.10,29.96,11,4,23,0.00
2013-11-10,49.5,43.7,38.5,43.2,36.7,26.9,96,77,59,29.96,29.64,10,2,20,0.08
2013-11-11,50.4,44.3,38.9,33.0,27.1,23.2,69,51,35,29.99,29.71,14,5,24,0.00
2013-11-12,47.9,35.0,27.3,36.0,20.8,13.7,86,56,50,30.08,29.78,10,4,25,0.02
2013-11-13,35.0,28.7,23.3,14.2,11.9,8.9,64,50,35,30.18,30.04,10,4,21,0.00
2013-11-14,50.8,38.6,28.1,27.8,21.4,13.5,60,50,38,30.03,29.92,11,3,22,0.00
2013-11-15,57.8,42.0,28.4,31.3,21.8,16.4,70,48,22,30.09,30.00,6,0,14,0.00
2013-11-16,58.9,41.3,30.4,35.8,28.3,20.8,93,63,26,30.24,30.08,2,0,5,0.00
2013-11-17,52.2,42.9,30.7,51.9,42.0,28.7,99,96,90,30.25,29.79,1,0,6,0.10
2013-11-18,64.3,56.3,48.3,61.2,47.5,31.0,99,75,41,29.79,29.41,11,3,20,0.20
2013-11-19,48.2,38.3,30.9,31.2,20.6,14.7,62,49,37,30.17,29.53,13,7,27,0.00
2013-11-20,41.5,32.2,23.9,16.0,13.2,9.6,64,46,27,30.54,30.17,6,2,17,0.00
2013-11-21,46.1,31.8,18.6,25.2,16.2,7.9,82,56,22,30.56,30.27,7,1,13,0.00
2013-11-22,42.8,39.4,36.2,40.9,35.8,24.3,98,87,61,30.26,29.71,1,0,4,0.09
2013-11-23,44.1,37.8,29.8,43.8,25.6,12.0,99,64,34,29.80,29.66,14,7,31,0.01
2013-11-24,29.7,23.1,18.9,19.2,2.8,-6.4,75,43,27,30.04,29.66,18,12,40,0.00
2013-11-25,30.3,23.4,17.2,11.5,-4.0,-12.4,47,30,16,30.24,30.05,14,6,28,0.00
2013-11-26,35.5,32.5,28.1,32.5,22.7,11.4,95,68,44,30.23,30.00,5,1,13,0.12
2013-11-27,60.7,49.9,33.8,60.4,49.5,32.5,99,98,95,29.98,29.16,9,4,29,1.27
2013-11-28,36.9,30.4,21.9,29.1,13.8,3.7,74,51,33,30.33,29.32,15,8,32,0.00
2013-11-29,30.3,23.0,15.2,10.0,5.9,0.2,68,49,28,30.66,30.33,8,2,21,0.00
2013-11-30,31.9,22.2,10.2,21.0,13.5,6.1,84,70,54,30.71,30.34,1,0,9,0.00